Location: Bun Machan
(52.1403°N, 7.3744°W)
Time: 08:40:16
(UTC+00:00)

Cosmos 1833 Rocket - Pass Details

Date: 14 July 2020
Orbit: 832 x 840 km, 71.0° (Epoch: 04 August)

Event Time Altitude Azimuth Distance (km) Brightness Sun altitude
Exits shadow 02:26:41 15° 186° (S) 2,103 4.2 -12.3°
Maximum altitude 02:31:12 55° 113° (ESE) 1,003 3.1 -12.0°
Drops below altitude 10° 02:36:41 10° 37° (NE) 2,457 6.6 -11.6°
Sets 02:39:10 0° 33° (NNE) 3,396 8.0 -11.4°
